Theta_e
303 304 304 303 303 302 302 302 302 303 303 303 303 304 306 308 309 310 312 312 311 310 311 311 310 310 309 309 309 308 307 306 306 306 306 309 309 310 310 310 311 310 308 308 307 308 308 309 309 310 315 318 317 318 319 319 318 315 316 316 315 315 315 316 317 318 318 319 320 320 320 320 321 324 324 326 336 343 345 347 347 346 347 346 347 349 350 350
303 303 304 304 304 303 302 302 302 302 303 303 303 302 303 305 307 309 310 312 312 311 311 311 311 310 309 309 309 309 308 308 307 306 308 310 309 309 310 310 310 309 308 307 307 308 310 310 309 313 316 317 317 318 318 319 318 315 317 317 315 316 316 316 318 318 318 319 320 320 320 320 319 323 325 324 335 343 345 348 349 349 350 349 349 349 349 349
303 303 303 303 304 304 304 303 302 302 302 303 303 303 303 303 304 307 309 311 312 312 311 311 311 310 310 310 309 310 308 308 309 309 313 313 310 309 309 309 309 309 308 308 307 308 312 311 310 314 317 317 318 318 318 317 317 315 316 316 316 316 317 317 318 318 319 319 319 320 319 320 319 321 324 324 334 340 343 347 350 350 350 349 349 349 349 349
303 303 303 303 303 303 304 304 303 303 302 303 303 303 303 303 303 304 306 309 310 312 311 311 310 310 311 310 310 310 308 312 316 317 318 316 313 312 310 309 310 309 309 308 307 310 314 314 313 316 317 318 319 318 317 316 316 315 315 315 316 317 317 317 318 318 318 319 318 320 319 319 319 320 322 325 336 341 340 344 349 349 350 349 349 349 349 349
302 302 302 303 303 303 303 304 304 304 303 303 303 303 303 303 303 302 303 305 308 310 311 311 310 311 311 310 311 309 309 318 323 320 320 320 315 312 311 310 309 309 309 307 308 312 315 315 315 316 317 318 318 318 316 316 316 315 315 315 315 316 317 317 318 318 318 319 318 318 319 319 318 320 319 320 334 340 338 340 345 348 349 349 348 348 348 349
302 302 302 302 302 303 303 303 303 304 304 303 303 303 304 304 303 303 303 303 305 307 310 311 311 311 311 311 310 309 312 320 319 317 319 319 316 312 311 310 309 309 308 307 309 313 313 314 316 316 317 317 317 317 316 316 316 314 314 315 316 317 317 317 318 318 318 319 318 318 319 319 318 319 320 324 332 336 336 338 341 345 348 348 349 347 347 348
301 302 302 302 302 302 302 303 303 303 304 304 304 303 304 304 304 304 303 303 303 304 307 309 311 311 311 311 310 310 314 316 313 316 318 317 315 314 313 310 308 308 307 308 310 313 314 314 316 316 317 317 316 316 316 317 316 315 314 315 317 317 317 318 318 318 318 319 318 319 318 318 319 318 320 330 334 334 335 338 340 344 347 348 348 347 346 347
301 301 302 302 302 302 302 302 303 303 303 303 304 304 303 304 305 305 304 304 303 303 304 306 309 310 311 310 309 312 314 315 316 319 318 317 315 314 314 311 308 308 308 309 312 314 315 316 316 316 315 316 316 316 316 316 315 314 314 315 317 317 318 318 318 318 318 319 318 318 318 317 318 318 318 328 335 334 334 336 338 342 345 347 347 346 346 346
301 301 301 302 302 302 302 302 302 303 303 303 303 304 304 303 304 305 305 304 303 303 302 304 306 307 309 308 310 316 316 316 321 320 319 319 316 314 315 313 311 308 308 311 314 315 316 316 316 315 315 315 315 315 315 314 314 314 315 315 316 317 318 318 318 318 318 318 318 317 318 317 318 319 317 324 333 333 333 334 334 337 343 345 345 344 345 346
301 301 301 301 301 302 302 302 302 302 302 303 303 303 304 303 304 305 306 306 304 304 303 303 303 305 307 307 312 319 318 318 322 320 320 318 316 314 313 315 313 308 309 312 315 315 316 316 315 315 314 314 314 315 315 314 314 315 315 315 316 317 317 318 317 318 318 318 318 317 317 317 317 318 317 319 330 334 333 334 333 335 341 344 341 341 343 344
301 301 301 301 301 301 302 302 302 302 302 302 302 303 303 303 304 304 306 307 306 305 304 303 302 303 305 306 312 318 314 316 320 319 319 317 317 314 312 315 314 310 309 312 315 316 317 316 315 314 314 314 314 314 314 315 315 315 315 315 315 316 316 317 317 317 318 318 318 319 317 317 317 317 317 317 326 334 334 333 334 337 341 342 339 341 342 343
301 301 301 301 301 301 301 302 301 302 302 302 303 302 303 303 303 304 305 307 307 307 306 305 304 303 303 304 308 312 310 314 318 317 318 318 319 316 314 316 315 313 310 312 315 316 316 315 315 314 314 314 313 314 314 315 315 315 315 315 315 316 316 317 317 317 317 318 319 318 316 316 316 316 318 316 321 332 334 333 335 338 342 341 338 340 341 343
300 300 300 300 301 301 301 301 301 302 302 302 302 302 303 303 303 303 304 305 307 308 308 307 307 305 305 306 308 307 308 311 314 315 316 317 319 316 315 316 315 315 313 314 316 316 316 315 315 315 314 314 313 314 314 315 315 315 315 315 315 315 316 317 317 318 317 317 319 318 315 316 316 315 318 318 318 329 334 335 336 338 339 338 337 339 342 344
300 300 300 300 300 300 301 301 301 302 301 302 302 302 303 302 303 303 303 304 305 307 307 307 308 307 307 310 308 309 310 310 312 315 315 317 319 317 315 316 316 316 315 315 315 316 316 315 315 315 314 314 314 314 314 314 315 315 315 315 315 314 315 317 316 317 316 317 319 317 314 316 317 316 317 318 317 324 331 334 335 336 336 337 338 338 342 345
299 299 299 300 300 300 300 301 301 301 301 302 302 302 302 303 303 303 303 303 303 304 305 307 309 310 311 314 312 314 315 311 313 315 315 316 318 317 316 316 316 316 316 315 315 315 315 316 316 315 314 314 313 314 314 314 315 316 315 314 315 314 314 316 316 317 316 317 318 316 315 317 317 317 317 318 317 320 326 330 332 334 335 337 339 339 341 343
299 299 299 299 299 299 300 300 300 301 301 302 301 302 302 302 303 303 303 302 303 303 303 309 314 315 316 318 315 317 318 314 313 314 315 314 316 318 317 317 316 317 316 316 316 315 315 316 316 315 314 314 314 313 313 315 316 317 315 315 316 314 313 315 315 317 316 316 317 316 316 317 318 317 317 318 317 318 322 326 329 333 335 337 340 338 339 343
299 299 299 299 299 299 300 300 300 300 301 301 302 302 302 302 303 303 303 303 304 304 304 311 318 317 318 317 316 318 317 317 315 315 315 313 314 317 318 318 317 316 316 316 316 315 315 315 316 315 314 314 314 314 314 315 317 318 316 315 316 314 314 314 314 316 316 316 316 316 316 317 318 317 316 317 317 319 321 321 327 333 334 334 337 337 338 341
299 299 299 299 299 299 299 299 300 300 300 301 301 302 302 302 302 302 305 309 309 309 309 313 316 317 318 316 317 318 315 317 318 316 315 313 313 315 317 318 317 316 315 315 315 314 314 314 314 315 315 315 314 314 315 315 316 317 317 316 315 314 313 313 313 315 315 315 316 316 316 317 319 318 316 316 317 318 321 321 325 332 335 334 335 337 338 340
299 299 299 299 299 299 299 299 300 300 300 301 301 302 302 302 305 310 315 316 315 316 318 317 315 317 317 316 317 318 316 317 318 317 316 314 313 314 316 317 317 316 315 315 315 313 314 314 313 314 315 315 315 313 314 314 315 315 316 316 314 313 314 313 314 315 316 315 316 316 315 316 317 318 317 317 317 318 320 320 323 332 336 335 336 339 340 341
299 299 299 299 299 299 299 299 299 300 300 300 302 301 302 306 312 318 320 317 315 316 317 316 316 315 316 317 316 317 317 317 317 317 316 314 313 314 315 317 317 316 315 316 315 313 313 315 314 313 314 316 317 317 316 316 316 316 315 315 314 313 314 316 315 316 316 315 315 316 316 316 316 319 318 317 317 318 321 320 323 332 337 337 339 341 341 341
299 299 299 299 299 299 299 299 299 299 300 300 301 301 302 305 309 313 314 313 312 311 311 313 315 316 316 315 314 316 317 316 316 316 315 314 313 314 315 316 316 315 315 314 315 314 313 315 314 314 316 318 320 321 321 319 319 318 317 315 314 315 316 317 317 317 317 317 316 317 318 316 317 319 318 318 320 321 323 321 323 332 337 336 338 338 338 337
299 299 299 299 299 299 299 299 299 300 302 305 304 302 303 304 306 309 309 309 310 310 311 312 313 315 315 314 314 315 316 315 315 316 315 314 314 315 316 316 315 314 315 314 315 315 314 314 315 316 318 320 320 322 323 322 321 319 318 317 316 317 317 317 320 318 317 319 317 317 317 318 319 319 319 321 323 322 322 322 323 332 337 335 335 335 334 334
299 298 299 299 299 299 299 299 300 303 308 311 308 305 306 308 308 309 309 310 310 310 311 311 312 314 314 314 314 314 316 315 315 316 315 315 315 316 316 316 314 313 314 314 314 315 315 314 314 316 317 320 321 321 323 324 324 322 320 318 317 318 316 317 322 321 321 325 322 320 321 324 321 318 322 321 321 321 321 323 321 328 334 333 334 333 333 333
298 298 298 298 298 299 299 299 301 307 311 311 308 306 309 311 310 310 311 312 312 311 310 310 311 312 313 313 313 314 316 316 316 316 315 315 317 316 315 315 313 312 312 313 313 313 315 314 314 315 316 319 320 321 324 324 324 325 323 320 319 318 317 317 321 323 328 330 329 327 327 332 328 320 324 322 321 324 321 323 320 326 332 332 332 331 331 331
298 298 298 298 298 299 298 299 303 310 314 310 307 308 309 311 313 312 311 314 315 313 311 313 313 312 313 312 313 315 316 315 316 316 316 316 316 316 315 315 313 312 312 312 313 312 312 314 316 316 315 317 317 320 325 324 322 324 325 323 321 319 319 319 318 320 324 324 327 325 322 330 333 322 324 324 324 325 322 325 320 326 331 331 331 331 330 331
298 298 298 298 298 298 299 300 303 308 310 308 307 308 309 311 312 310 313 319 320 317 313 315 316 313 313 313 313 315 315 315 315 316 316 316 316 317 315 314 313 312 312 312 313 312 313 314 317 318 317 316 316 318 323 325 321 321 322 322 320 319 318 319 318 317 318 320 325 323 319 326 331 322 323 324 324 326 326 328 325 328 330 331 330 331 331 331
297 298 298 298 298 299 299 300 301 301 302 303 306 308 309 310 309 309 317 321 321 320 316 314 316 314 313 314 314 315 316 316 316 315 316 315 316 317 315 315 313 312 313 312 313 314 315 315 317 320 320 318 318 319 322 323 321 319 320 319 317 317 317 319 318 315 319 325 324 322 321 322 322 322 325 324 323 327 327 328 330 329 330 331 331 332 332 331
297 297 298 298 298 299 299 300 299 300 301 301 303 307 309 309 308 310 319 321 319 317 316 314 316 315 314 316 315 315 316 316 316 316 316 316 316 316 314 314 313 313 314 313 314 317 318 318 318 321 320 318 319 320 322 321 318 319 319 318 316 316 316 317 317 316 322 325 321 321 322 319 320 325 326 322 321 325 327 328 329 329 331 331 331 331 331 332
297 297 297 298 298 299 301 301 301 306 306 303 304 308 309 308 308 312 320 323 319 314 315 315 317 317 316 317 316 316 316 316 316 316 316 316 316 316 315 315 314 314 314 314 315 318 319 318 318 319 319 319 319 319 320 319 318 318 317 318 316 315 317 316 316 317 319 322 322 323 322 319 324 330 325 321 321 324 327 329 329 330 331 331 331 331 330 331
297 297 297 298 298 300 302 300 303 310 310 309 309 309 308 308 311 316 320 322 316 313 315 316 317 318 317 317 316 317 316 316 316 315 315 316 316 317 316 316 315 314 315 315 315 315 317 317 317 317 317 318 319 319 318 317 317 318 317 317 315 316 319 318 319 318 317 322 325 325 322 318 324 333 330 325 327 329 330 329 330 329 330 331 331 331 331 331
297 297 298 299 299 300 301 300 305 311 311 312 311 308 307 309 313 318 320 319 313 313 315 316 317 318 318 318 317 317 316 317 316 315 315 316 317 316 317 317 316 315 316 316 316 316 314 316 317 317 317 317 318 317 316 316 316 316 316 316 316 320 321 317 317 315 316 323 324 320 319 318 320 329 331 328 330 332 329 329 331 330 330 331 330 332 332 331
297 298 298 299 300 300 300 300 305 310 311 310 308 307 309 310 312 316 318 315 315 315 313 315 317 317 317 318 318 318 317 316 316 314 315 317 318 317 316 318 317 316 316 316 317 318 316 316 317 317 317 316 316 316 315 315 316 316 317 316 317 319 319 318 318 318 321 326 324 319 318 320 323 326 329 329 330 331 329 329 331 330 331 331 331 332 333 332
298 299 299 300 301 301 301 300 302 305 308 307 305 307 310 311 313 315 314 313 315 315 312 314 315 315 317 317 317 317 317 316 315 315 316 317 318 317 316 317 317 315 317 319 317 316 316 316 314 315 317 316 316 315 314 318 318 316 317 318 319 321 320 319 320 320 322 324 323 319 317 323 329 328 327 329 327 328 329 329 330 331 331 331 331 332 333 333
299 301 302 303 304 304 303 301 299 301 306 308 308 309 311 313 314 314 312 312 312 312 312 313 313 314 316 317 318 318 316 315 314 315 318 318 318 319 317 315 316 315 316 318 317 316 316 317 316 316 316 316 316 314 315 319 319 317 318 317 321 326 324 321 321 320 321 324 326 322 319 325 331 329 328 327 325 326 327 329 331 331 330 331 331 332 333 333
301 303 304 306 310 309 304 301 300 303 308 311 309 310 312 313 313 313 313 312 311 312 313 313 313 313 315 317 320 320 317 316 317 315 317 319 318 320 318 316 316 316 315 316 318 316 314 317 317 315 316 316 316 316 316 315 318 324 321 313 318 326 326 324 325 322 321 326 327 324 325 327 329 330 328 326 326 328 327 328 330 330 331 331 331 332 333 333
302 303 303 308 314 313 308 304 303 306 313 313 311 311 312 311 311 311 312 312 311 312 311 312 313 312 314 316 318 320 320 322 322 317 317 320 319 318 318 317 316 315 316 318 320 316 314 320 320 313 315 316 314 317 316 313 321 329 322 314 319 324 322 323 325 323 322 324 323 325 329 326 325 329 327 326 329 329 328 328 328 330 331 331 331 331 332 332
303 303 303 308 315 315 312 309 309 311 313 314 313 313 310 308 309 309 309 310 310 310 309 311 312 312 313 315 316 320 321 320 319 317 320 325 327 321 317 317 317 315 315 317 319 318 317 320 322 315 314 316 314 316 316 314 320 323 319 317 322 323 325 327 325 323 323 322 321 327 329 325 327 329 326 329 332 330 329 329 328 329 331 331 330 330 330 332
305 306 307 310 314 314 312 312 313 313 313 313 314 313 310 308 309 308 308 309 308 308 308 309 311 311 312 314 315 318 320 320 320 320 320 323 327 323 318 318 319 317 315 315 317 319 317 317 320 317 316 319 317 314 316 316 315 319 320 319 323 329 333 331 323 321 324 324 322 325 329 328 329 330 327 329 331 331 331 330 328 329 330 330 329 329 329 330
311 314 313 313 313 313 312 312 313 312 313 314 313 312 309 308 308 308 308 307 307 307 307 308 311 311 312 313 313 315 317 319 323 325 323 322 324 323 319 319 319 317 317 317 316 318 321 321 322 321 317 321 321 315 317 319 315 316 318 316 322 332 333 329 324 322 325 327 324 325 332 335 333 331 330 330 330 331 332 331 330 329 329 330 329 329 329 328
312 315 315 314 314 313 312 312 313 312 313 314 313 311 309 307 307 308 307 307 307 307 308 308 309 311 313 313 312 313 314 319 324 325 325 324 325 324 319 318 319 318 316 318 318 318 322 323 325 325 319 321 324 319 318 319 316 316 317 315 319 324 326 325 326 321 320 325 327 327 332 338 337 333 330 330 330 330 332 332 330 328 328 329 329 329 329 329
309 313 315 315 313 312 312 312 314 314 313 313 312 310 309 309 308 308 307 308 307 308 308 308 309 311 313 313 312 311 313 318 323 324 324 324 326 329 325 318 317 317 318 321 322 321 321 322 327 328 321 321 323 319 316 317 316 316 317 318 319 323 326 324 324 323 319 320 324 327 332 335 334 331 328 329 330 329 329 330 328 327 328 328 329 330 330 330
312 314 314 314 313 312 313 314 314 314 313 313 312 310 311 310 309 309 309 308 307 308 309 309 310 312 312 313 312 311 312 315 319 324 325 324 324 326 324 318 316 317 318 321 321 321 322 322 323 324 320 319 319 317 318 318 316 317 317 317 318 322 326 324 325 330 327 322 323 328 334 335 330 326 326 327 327 327 326 326 326 326 327 327 328 329 330 330
314 314 312 313 313 312 314 315 314 313 312 312 311 311 311 311 311 310 310 310 308 308 311 311 311 312 312 312 311 311 313 314 317 322 323 322 321 320 318 318 318 318 320 324 326 322 321 321 322 324 326 325 321 318 319 317 316 319 318 317 319 320 322 322 323 329 330 327 327 328 331 332 328 325 325 325 325 325 325 325 325 325 326 326 326 327 328 329
311 312 312 313 312 311 314 315 314 313 312 311 311 311 311 311 311 310 310 310 309 309 311 311 312 312 312 312 311 311 313 314 316 318 318 319 320 318 317 317 318 319 322 327 327 321 323 326 324 326 330 330 325 324 325 322 319 319 318 318 320 320 324 326 327 330 330 326 325 327 329 328 326 325 325 324 324 325 325 325 325 325 325 324 324 325 326 327
311 312 311 311 311 311 313 314 312 312 312 311 311 311 311 311 311 311 310 310 309 310 311 311 311 311 310 311 311 311 311 313 315 315 316 318 320 318 317 317 318 319 321 322 320 321 329 330 323 322 326 329 329 329 328 324 321 320 318 318 320 321 324 327 329 330 328 325 326 329 329 328 326 325 325 324 325 325 325 325 324 324 324 324 324 324 324 325
312 311 310 310 310 309 311 311 310 312 312 311 311 311 310 311 311 311 311 311 310 310 311 311 311 311 311 312 312 312 312 311 313 316 316 317 318 317 317 318 317 317 318 318 317 320 326 326 321 320 323 327 330 328 324 321 322 322 319 317 320 322 322 325 330 330 326 327 329 327 327 328 326 326 326 326 325 325 324 324 324 323 323 323 323 323 324 324
312 311 310 311 311 310 310 310 310 311 312 311 312 312 311 311 312 312 312 310 310 310 310 311 311 311 312 313 314 314 313 312 314 317 317 317 317 316 316 317 317 318 318 317 317 319 321 323 323 323 322 321 323 322 320 320 319 319 319 318 320 322 322 323 328 327 324 326 328 324 325 328 327 327 327 325 325 324 323 323 322 322 322 322 322 323 323 322
311 311 309 310 312 311 311 310 310 311 312 312 312 311 310 310 312 314 314 311 310 311 312 313 312 312 312 313 315 315 315 317 319 320 321 321 319 318 319 318 317 318 318 316 318 320 320 322 324 323 321 318 317 318 320 320 317 317 320 320 319 321 322 322 323 323 325 329 328 325 326 327 325 324 324 324 323 322 322 322 321 320 320 321 322 321 319 316
309 310 309 309 310 310 310 309 310 311 311 311 312 311 310 311 312 312 313 313 313 311 312 314 313 312 312 312 314 314 315 318 320 322 323 323 321 321 323 323 322 318 316 319 322 320 320 324 323 320 319 318 316 316 317 317 318 318 319 319 318 319 319 319 321 323 326 328 327 324 322 320 317 315 315 318 318 318 319 320 318 316 315 315 315 313 311 310
308 310 309 310 310 309 308 308 309 311 310 310 311 311 311 312 311 310 311 313 313 311 311 314 313 312 311 310 311 313 313 315 317 318 321 322 322 324 324 324 324 321 317 319 322 320 320 324 323 320 321 319 316 316 316 317 319 318 318 318 318 318 318 318 320 323 324 325 323 321 317 314 312 310 309 311 312 313 313 313 312 311 310 310 309 308 308 308
306 308 309 310 310 309 308 308 309 310 310 310 311 310 310 310 310 310 310 311 311 310 309 311 313 313 311 310 311 311 310 311 313 314 314 316 319 322 323 322 323 324 322 321 324 323 322 323 322 321 324 321 316 316 318 318 320 320 321 320 318 319 319 318 319 321 322 323 322 319 316 313 311 308 307 308 308 309 308 307 307 307 307 307 307 306 306 306
305 307 309 310 311 309 307 308 308 309 310 310 309 309 309 309 309 310 311 311 310 309 308 309 311 312 312 311 310 309 308 310 311 311 310 312 313 314 317 318 319 323 323 322 323 323 321 323 323 322 323 321 317 318 320 321 322 322 321 319 319 319 318 317 318 319 318 319 320 318 316 312 309 308 307 307 307 306 306 305 305 305 305 305 305 305 305 306
Wind_Speed
12 12 12 12 12 11 9 9 8 9 9 9 10 10 10 10 10 9 9 8 8 9 9 9 10 11 12 13 14 15 16 16 15 17 20 12 5 10 13 12 10 8 9 12 11 11 12 13 17 16 12 12 14 17 17 17 19 13 6 4 5 6 7 9 9 7 3 2 3 6 10 7 4 7 6 9 24 28 22 25 25 20 19 19 23 29 29 27
12 12 12 12 12 12 11 10 9 9 9 9 10 10 11 11 11 10 10 9 8 9 9 9 10 11 13 14 16 17 18 18 18 22 20 10 9 12 10 11 10 9 10 11 12 14 13 14 17 14 12 15 15 16 15 14 16 10 3 4 6 6 9 14 12 12 9 4 5 5 6 5 5 6 5 3 15 22 17 18 26 29 26 25 29 30 28 28
11 12 12 12 11 12 12 11 10 10 9 10 10 10 11 11 11 11 10 10 9 9 10 10 11 12 13 14 17 19 19 20 20 19 13 8 13 14 11 10 9 10 11 10 12 14 13 13 14 12 14 16 16 17 14 13 13 10 8 4 5 7 11 18 17 19 19 8 4 5 2 1 5 4 4 4 12 16 11 11 19 24 26 28 30 30 29 27
11 11 12 12 12 11 11 11 11 11 10 10 10 10 11 11 11 11 11 11 10 10 10 11 12 12 13 15 17 19 21 19 13 7 5 5 6 9 10 9 8 10 11 10 12 14 12 12 13 14 16 13 16 18 13 14 11 8 10 4 7 10 10 19 22 23 24 13 2 3 3 0 9 8 3 7 12 7 9 18 20 23 28 29 29 30 29 26
12 12 12 12 12 12 11 11 11 11 11 11 10 10 11 11 11 11 11 11 11 11 11 11 12 13 13 14 17 19 18 9 2 2 4 6 6 3 6 7 8 10 10 10 15 16 13 15 17 18 16 10 12 13 11 19 16 7 9 10 14 14 11 21 23 21 20 11 4 6 5 7 12 8 6 3 6 4 11 22 25 27 28 29 29 29 29 27
12 12 12 12 12 12 12 11 11 11 11 11 11 11 11 11 11 11 11 11 11 12 11 11 12 13 13 13 16 18 12 2 3 3 5 7 6 2 2 5 8 9 11 13 18 17 14 17 18 17 13 8 9 8 11 21 19 8 8 12 18 19 16 22 24 21 16 8 6 7 10 13 9 3 5 5 12 13 18 21 23 25 26 28 27 26 27 28
12 12 12 13 13 13 12 12 12 12 11 11 11 11 11 11 11 11 11 11 11 11 11 12 13 14 13 13 15 16 12 11 9 5 5 6 4 2 1 4 8 11 14 17 20 16 12 15 17 16 10 6 9 9 14 20 18 12 7 10 16 20 19 22 26 22 13 5 4 4 9 13 4 1 4 13 24 22 23 21 20 23 24 26 24 23 26 27
12 12 13 13 13 13 13 13 13 12 12 12 11 11 11 11 11 11 11 11 11 11 11 12 12 14 14 13 13 14 16 15 8 3 5 5 3 3 3 4 8 13 16 19 20 15 10 14 17 17 8 5 10 11 15 16 13 11 9 11 14 18 22 24 27 22 13 7 6 2 5 12 8 3 5 12 27 25 25 24 21 21 21 23 21 20 23 25
12 12 13 13 13 13 13 13 13 13 13 12 12 11 11 11 10 11 10 11 11 11 11 11 12 13 13 13 11 11 13 10 5 1 5 6 6 7 6 6 7 12 17 21 19 13 12 15 17 17 9 10 13 12 16 11 6 9 11 14 13 15 21 23 24 23 17 9 12 7 6 12 11 2 6 7 27 27 27 27 22 22 21 21 19 17 20 23
12 13 13 13 13 13 13 13 13 13 13 13 13 12 12 11 11 11 10 11 11 11 11 10 12 11 12 12 7 5 6 2 4 5 5 8 9 8 9 8 7 11 18 21 16 13 15 15 15 17 14 14 14 11 14 10 8 13 15 15 15 18 21 22 23 22 19 8 8 4 2 9 11 3 5 5 25 30 28 28 23 23 23 21 18 16 17 20
13 13 13 13 13 14 14 14 14 14 14 14 13 13 12 12 12 11 10 10 10 10 9 9 11 11 12 10 7 8 7 5 3 5 8 10 9 10 11 10 9 10 16 19 14 11 12 15 16 16 12 10 12 12 14 15 16 18 17 14 14 17 19 20 20 19 16 7 5 3 3 8 9 6 7 12 19 32 29 27 26 25 25 22 19 17 17 18
13 13 13 14 14 14 14 14 14 14 14 14 14 14 13 13 12 12 11 10 10 9 9 9 10 11 12 13 18 12 7 9 6 6 11 8 6 9 10 10 10 9 12 17 13 10 11 14 17 16 11 8 8 8 11 18 20 19 16 11 10 10 12 14 11 15 14 4 8 8 5 7 6 6 14 20 17 29 33 29 29 28 27 25 21 19 18 18
13 13 13 14 14 14 14 14 14 14 14 14 15 15 14 14 13 13 12 10 10 10 11 10 11 13 11 15 22 15 10 14 10 9 13 11 6 8 9 9 11 9 9 12 12 13 13 14 17 17 16 11 7 7 13 18 17 13 10 6 7 8 6 8 7 13 13 5 12 11 4 7 7 9 17 22 20 24 32 30 30 29 28 26 24 22 20 19
14 14 14 14 14 15 15 15 15 15 15 15 15 16 15 15 14 14 13 12 12 11 13 11 12 12 10 18 23 15 11 14 14 13 14 15 9 8 10 9 12 13 9 11 14 16 16 15 15 16 16 14 11 14 15 13 10 6 5 4 4 5 4 6 6 9 9 8 16 12 3 7 7 10 19 23 24 22 27 28 30 29 28 28 27 25 23 22
15 15 14 14 15 15 15 15 16 15 15 15 16 16 16 16 16 15 14 14 13 13 14 12 11 9 10 22 22 7 5 12 19 17 13 17 14 12 14 11 14 17 14 14 15 16 16 13 11 11 13 15 13 12 7 4 6 3 4 5 3 5 4 6 8 9 9 9 17 12 3 7 6 11 21 25 27 21 25 26 28 30 30 31 29 27 25 22
16 16 15 15 15 15 15 16 16 16 16 16 16 16 16 17 17 17 16 17 15 14 13 8 6 6 7 14 11 3 7 15 21 17 12 17 17 15 16 14 14 15 15 16 15 14 13 12 13 11 10 10 7 5 5 4 5 3 4 5 4 5 4 6 9 12 13 10 13 12 5 4 4 13 23 26 28 22 25 24 29 34 32 33 31 28 26 23
16 16 16 15 15 15 16 16 16 16 16 16 17 17 16 17 18 18 18 18 16 13 11 5 1 6 11 11 9 9 11 16 19 17 15 16 17 17 16 17 16 14 15 15 14 14 12 12 11 9 7 5 3 3 4 5 5 4 4 5 6 7 5 5 7 11 15 12 10 11 8 6 5 13 22 25 27 23 26 23 30 37 33 31 30 28 27 25
17 17 16 16 16 15 16 16 17 17 17 17 17 17 16 16 19 20 19 15 11 7 7 7 5 3 11 11 11 11 9 14 18 16 17 17 17 19 18 18 17 15 16 14 13 14 12 11 8 4 4 4 4 4 5 6 6 6 6 5 6 8 9 9 8 8 12 13 12 11 10 10 8 11 17 18 20 16 22 23 28 37 33 29 29 28 28 26
17 17 17 17 16 16 16 16 17 17 18 17 16 17 17 16 17 16 11 6 4 2 4 8 11 4 7 11 15 15 10 9 15 14 17 19 17 18 20 19 17 16 13 8 8 13 10 6 5 5 4 6 6 7 8 8 8 10 10 6 5 7 7 11 13 12 11 12 14 12 11 13 11 11 13 15 18 15 18 23 24 32 32 29 30 29 30 27
18 18 17 17 17 17 16 17 17 17 18 18 16 16 13 11 9 5 3 7 11 12 14 15 18 18 19 22 25 20 12 7 15 13 14 18 17 17 21 20 14 13 9 4 6 12 11 5 5 7 6 7 9 10 12 11 10 11 10 7 8 7 6 10 13 14 11 9 14 13 10 14 13 10 12 16 20 15 14 20 19 28 30 29 30 28 27 22
18 18 18 18 17 18 17 17 17 17 18 18 17 15 12 9 5 4 9 15 21 21 21 22 22 26 28 29 29 24 17 10 16 13 10 18 18 15 18 16 9 6 7 7 6 10 11 6 7 9 8 10 11 10 11 12 12 10 7 7 8 8 8 11 15 16 12 7 11 11 9 12 13 10 12 12 11 6 11 15 16 26 28 27 30 25 25 28
19 19 19 19 18 18 18 18 17 16 17 15 15 14 12 12 7 9 15 17 23 25 23 26 27 30 32 31 30 27 22 14 14 14 12 18 20 14 11 11 6 3 6 8 6 5 6 6 9 10 9 10 11 11 10 11 11 9 6 6 6 7 7 11 16 14 7 6 8 11 9 9 11 13 12 7 9 11 16 19 21 30 30 26 26 28 32 31
19 19 19 19 19 18 18 17 14 13 13 13 13 10 10 11 5 8 15 13 21 28 25 27 30 32 34 32 29 26 22 16 12 16 18 19 20 19 12 8 7 6 6 7 7 4 4 8 11 11 10 10 11 11 8 5 6 6 5 5 6 7 5 6 10 8 2 6 6 8 4 3 6 8 8 6 11 15 20 23 23 27 26 24 31 40 39 38
19 19 18 19 18 18 18 15 11 9 11 10 8 7 12 12 5 10 14 9 12 23 28 27 28 31 34 30 25 23 22 18 13 15 22 23 20 19 12 7 8 7 7 9 11 9 8 11 13 12 12 11 10 11 7 3 3 4 4 5 5 8 8 6 8 10 7 4 5 7 4 5 3 3 6 6 9 12 15 17 14 20 34 39 40 41 41 42
18 18 18 18 18 16 16 13 8 7 11 10 8 13 16 11 6 11 12 6 5 15 23 20 20 26 31 27 21 22 20 18 19 17 21 28 23 15 11 11 9 6 9 11 11 9 11 14 13 12 13 13 12 10 6 6 3 4 4 6 8 11 11 8 10 8 6 5 2 6 3 5 5 3 6 6 4 8 10 13 11 25 45 47 42 40 40 37
19 19 18 18 17 16 14 10 7 10 13 11 10 15 14 9 7 9 7 3 3 8 10 8 11 13 18 21 23 23 15 14 23 22 20 27 27 17 9 9 8 7 9 10 8 5 8 14 12 12 14 15 13 10 5 6 2 3 3 5 10 12 9 8 9 6 1 3 2 4 4 3 6 5 7 5 5 8 9 8 8 24 40 43 44 41 37 33
20 20 18 17 17 16 15 10 9 13 14 13 9 9 11 11 9 7 3 1 4 6 4 8 9 4 7 18 25 19 7 7 18 24 24 24 28 21 10 5 6 8 8 6 5 4 8 13 11 9 10 9 9 6 4 6 4 4 4 6 11 12 9 7 5 5 3 2 1 2 5 2 4 5 8 6 5 6 9 8 12 23 32 37 41 39 36 36
20 20 19 17 15 15 16 14 13 12 11 12 10 6 11 15 9 5 2 1 4 3 2 4 6 3 4 17 26 19 10 8 9 17 25 24 26 20 10 8 7 8 9 6 5 5 8 12 10 7 5 3 4 5 5 7 5 5 6 8 11 10 10 7 5 6 2 3 2 3 5 2 4 6 7 7 5 6 8 11 15 21 27 32 35 36 37 37
19 19 19 17 14 12 13 15 13 9 8 7 5 6 11 12 6 2 2 1 5 3 3 4 4 3 4 13 20 16 14 11 5 13 22 25 28 19 8 11 12 9 9 7 7 6 5 11 12 7 5 3 3 5 6 7 6 6 7 9 9 8 9 7 5 5 1 3 4 5 3 2 4 5 4 6 7 7 7 10 14 19 28 32 33 34 33 32
18 18 19 18 14 10 12 14 9 5 7 7 4 6 9 7 2 2 1 2 3 3 3 5 4 7 7 6 9 10 11 11 10 14 20 23 28 20 9 13 14 8 8 8 8 9 8 10 11 6 6 7 6 5 7 9 8 7 6 7 7 7 6 5 4 4 3 1 6 6 3 2 3 6 3 4 5 6 7 9 11 15 22 28 32 34 30 31
17 16 17 18 16 12 14 13 5 2 4 6 6 7 6 3 1 2 3 2 4 5 2 3 5 8 10 7 5 7 8 9 10 10 12 14 16 13 6 8 9 5 5 5 6 10 11 9 5 2 3 6 7 6 7 10 10 7 5 4 3 5 4 3 1 3 2 4 5 6 5 4 3 5 4 4 3 7 12 12 11 12 16 21 28 31 30 33
16 14 15 16 16 14 15 11 3 3 2 3 6 6 2 0 1 3 3 3 4 4 1 2 6 8 9 8 6 7 7 7 9 7 8 7 6 7 5 4 4 3 4 5 3 6 8 5 3 4 5 3 4 4 6 8 6 6 5 4 1 2 2 2 2 3 4 4 4 7 6 4 4 2 3 5 7 7 11 15 16 16 18 21 26 28 29 34
14 13 13 13 15 15 13 9 6 9 8 6 8 6 1 1 2 5 4 4 4 3 6 6 5 6 8 8 6 8 8 6 8 7 7 7 6 6 8 8 7 4 3 5 3 3 4 5 4 5 4 6 6 3 3 5 3 4 4 5 3 2 1 2 3 2 2 4 6 8 7 4 1 1 3 6 8 6 11 20 25 25 26 27 27 26 26 30
13 11 11 10 12 12 9 7 8 9 6 5 5 2 1 2 3 4 5 6 8 10 11 10 9 6 7 6 3 4 5 7 8 6 6 6 5 5 7 11 11 6 3 3 3 2 3 5 5 5 4 8 9 6 5 4 2 4 4 5 4 4 4 3 2 2 3 3 5 5 4 2 2 2 2 8 12 15 17 22 28 29 30 30 28 29 28 28
11 9 10 8 7 7 4 3 6 6 2 2 1 1 3 3 3 3 5 7 8 10 11 12 12 8 5 3 4 5 6 5 7 6 6 6 5 5 5 7 11 8 4 3 3 3 4 4 7 10 9 9 9 8 6 3 2 3 2 2 4 4 5 3 2 4 4 1 3 1 1 2 3 2 2 9 13 16 19 20 22 21 24 27 29 31 33 31
12 9 9 6 3 4 3 2 3 5 3 2 2 2 4 4 3 3 4 6 7 8 11 11 9 5 4 2 5 7 5 2 4 4 3 5 5 6 5 6 9 10 6 4 2 2 3 4 5 10 13 10 9 8 6 4 2 2 1 2 6 5 6 4 2 2 3 2 2 1 2 1 2 1 3 10 11 11 14 16 16 15 19 24 27 30 34 34
12 9 8 6 5 5 2 5 6 5 2 3 2 3 4 4 7 7 7 11 13 12 10 7 6 5 3 2 4 4 2 2 4 4 2 1 1 5 4 3 5 8 11 8 4 3 4 5 6 4 7 9 11 12 8 7 7 3 2 5 3 2 2 4 2 1 3 1 3 3 5 3 3 1 1 8 10 8 9 10 13 18 22 23 25 29 31 32
12 8 7 4 3 3 1 4 4 3 3 2 3 5 4 5 10 11 12 15 14 12 9 6 5 7 3 1 3 2 5 3 3 3 1 2 1 2 1 3 5 4 6 7 5 3 3 3 7 3 0 4 5 9 7 7 7 5 4 5 2 3 2 1 2 2 2 2 3 1 3 2 2 1 1 6 8 7 7 8 10 13 17 20 23 28 30 29
11 8 5 4 4 5 4 4 5 7 5 2 3 4 4 7 12 18 21 19 13 10 8 8 7 6 4 4 5 1 7 6 2 1 1 2 2 2 4 2 5 6 8 4 1 3 1 3 3 6 1 2 3 3 5 5 5 5 3 0 2 4 3 1 2 3 3 2 2 2 2 1 2 3 3 6 7 8 8 7 8 9 14 19 21 24 26 27
8 5 1 3 3 4 7 8 7 6 4 3 4 4 6 8 11 19 25 20 11 7 6 8 9 6 4 5 7 6 2 4 4 4 2 2 2 3 4 2 4 7 8 7 4 4 3 3 2 6 3 4 2 2 2 1 2 4 4 1 1 2 2 1 1 2 4 2 2 1 1 4 4 3 3 7 7 7 8 7 7 10 16 19 21 22 22 23
5 3 3 5 5 5 6 6 5 4 3 3 5 6 8 10 11 16 23 21 14 11 10 10 9 6 4 5 7 7 6 1 3 3 3 3 1 1 1 2 4 7 6 5 4 3 2 0 3 3 3 2 2 3 6 7 7 3 1 2 1 2 4 3 2 3 2 3 2 4 2 4 4 3 2 4 6 6 8 9 8 11 17 20 20 22 21 22
2 2 1 3 4 2 2 3 3 4 3 3 6 9 12 12 11 12 18 19 14 11 11 10 7 5 3 4 6 6 6 3 2 2 2 3 2 2 3 3 4 6 5 2 2 3 2 0 1 2 1 2 3 5 9 10 9 8 6 7 5 3 3 4 2 3 1 2 1 2 3 2 3 7 9 8 6 7 8 8 10 13 15 16 17 19 20 21
4 3 0 2 1 3 1 1 3 2 2 6 10 13 16 13 11 12 14 14 11 6 5 5 4 4 3 4 7 6 5 3 3 4 3 3 3 6 4 2 4 5 5 2 3 5 4 2 2 2 2 3 4 6 8 10 10 7 6 8 7 6 4 1 4 3 2 1 1 3 1 2 3 7 10 11 12 15 15 12 12 15 14 13 14 16 19 20
9 6 3 4 1 4 1 1 2 3 4 8 10 11 14 12 11 12 11 11 11 5 2 4 6 6 5 6 10 9 5 2 2 5 4 3 3 6 6 2 4 4 2 1 1 2 3 1 2 3 3 5 6 5 5 7 6 3 5 8 9 10 9 4 2 4 2 3 4 4 1 2 2 5 9 8 8 10 9 8 11 15 15 14 14 14 14 15
10 4 4 5 3 7 4 1 2 4 4 6 8 8 10 10 12 14 12 11 13 8 2 3 8 9 6 7 11 11 5 3 1 2 3 3 2 4 7 8 5 2 1 1 2 4 1 1 2 3 2 1 1 2 1 2 2 1 5 10 12 12 10 4 2 4 2 1 4 5 4 3 3 5 8 7 6 7 7 8 12 15 15 15 14 14 14 14
6 3 2 3 8 11 7 4 5 4 2 3 5 6 7 7 9 13 13 9 9 9 6 4 8 8 6 6 9 8 5 6 5 0 2 2 2 2 4 10 11 8 2 4 3 4 3 1 1 3 4 4 4 4 4 3 2 3 6 11 12 11 11 7 4 2 1 1 3 3 7 9 6 5 6 6 6 7 7 10 14 16 17 16 14 15 17 19
2 2 2 2 4 8 8 7 7 5 2 1 1 4 8 10 8 9 11 8 5 8 6 3 5 7 6 6 6 4 6 8 6 4 3 3 2 1 5 4 5 9 8 2 2 4 3 1 2 5 3 3 5 5 4 3 3 5 7 10 12 11 12 10 5 3 3 2 3 2 7 10 5 4 6 4 6 7 7 11 16 18 18 14 14 18 21 23
2 2 4 3 0 1 4 5 7 6 3 0 0 3 7 10 7 4 8 12 10 9 6 3 7 10 9 8 6 4 7 7 6 6 5 6 5 3 7 9 6 6 3 2 4 4 2 1 2 4 3 3 3 5 4 3 4 5 7 8 10 12 11 9 4 5 4 4 6 6 9 9 4 4 5 6 7 8 10 16 21 23 23 19 19 22 25 27
8 4 5 6 2 2 4 7 6 4 4 3 3 4 5 6 7 4 3 6 7 9 8 3 7 12 12 11 8 5 7 6 4 5 3 3 6 3 4 4 4 10 11 3 3 5 2 1 3 1 3 2 5 7 6 5 5 5 7 7 9 12 11 8 5 7 6 8 11 13 15 11 6 6 7 10 14 16 18 22 25 27 28 29 29 28 29 31
11 7 5 10 5 4 6 8 5 3 4 5 2 1 2 3 6 5 3 1 2 5 6 4 4 8 10 11 8 5 6 5 3 3 1 1 3 1 2 1 1 7 10 3 3 9 5 0 4 3 1 2 7 8 7 7 6 6 8 7 8 11 9 7 6 7 7 9 10 14 16 9 5 7 10 13 19 23 22 23 23 24 29 32 32 31 30 32
10 8 7 8 5 2 5 5 4 2 3 4 3 3 4 6 8 5 4 7 10 8 8 8 5 4 6 9 9 7 9 9 7 7 6 3 3 4 3 3 3 3 6 3 2 5 4 2 2 2 3 2 2 6 8 8 7 6 7 6 6 8 7 5 4 3 3 6 7 9 11 5 2 7 12 14 18 22 20 19 22 24 27 30 30 29 30 32
13 9 9 6 3 2 4 2 3 3 1 3 5 6 6 8 10 7 3 8 13 13 13 12 8 5 5 7 8 11 16 17 13 13 14 11 10 10 5 11 14 8 2 1 2 1 0 1 2 3 3 4 6 4 7 7 6 4 3 5 4 5 7 7 6 4 4 4 4 4 7 5 3 8 12 11 14 17 17 17 20 23 25 28 28 28 29 31
Wind_Direction
5 7 10 11 12 7 358 348 339 335 330 323 315 306 302 305 311 314 315 320 332 333 334 343 343 343 342 338 333 326 319 305 295 280 273 281 272 243 240 243 239 230 228 222 218 206 199 202 203 196 199 228 244 251 253 254 252 236 215 220 243 250 249 260 255 267 301 7 351 18 14 15 62 92 117 105 96 91 85 85 87 97 115 140 145 147 157 160
357 360 1 4 7 7 6 357 347 340 335 333 326 315 307 301 303 307 311 311 316 322 325 333 337 339 338 337 334 328 322 313 300 280 272 274 261 251 235 235 235 227 226 218 210 197 192 200 198 191 209 235 239 242 245 245 248 240 207 218 229 238 252 259 265 288 300 335 8 41 33 0 7 59 108 127 102 99 90 90 97 99 109 127 137 146 157 161
351 353 353 356 359 1 4 0 355 346 336 335 330 325 317 306 301 298 301 304 307 312 315 325 328 329 333 334 332 329 326 319 304 290 291 280 253 250 242 234 222 224 226 215 209 196 189 199 195 195 218 235 239 238 234 232 243 240 229 232 236 238 252 260 267 277 282 298 36 78 121 295 351 16 118 109 92 99 108 111 107 110 121 131 140 149 155 161
347 346 347 348 350 353 355 356 357 351 344 338 333 330 323 316 308 299 296 296 300 304 307 320 321 319 327 331 329 329 331 324 309 309 341 333 274 245 237 224 212 221 222 208 200 190 187 204 204 206 219 230 236 238 235 226 229 230 225 221 251 254 260 261 261 267 281 295 341 81 145 131 347 342 6 85 95 102 143 137 133 133 135 140 148 153 156 160
342 340 342 342 343 345 346 348 349 350 349 344 339 334 330 328 320 309 300 293 293 295 297 308 311 311 318 326 327 327 334 342 1 359 317 331 344 251 219 206 211 216 214 202 188 187 199 221 222 215 218 229 232 235 242 233 226 232 238 225 238 251 267 268 271 285 300 316 10 25 29 342 338 337 331 3 123 148 148 141 143 143 144 150 153 155 158 161
336 335 336 336 338 339 340 341 340 342 345 346 345 338 334 332 327 321 309 298 293 292 294 297 300 304 310 322 323 322 328 279 202 320 290 310 340 279 220 203 208 208 205 192 185 193 213 231 232 222 216 223 234 235 245 239 230 237 258 237 233 237 250 267 277 288 299 329 33 16 341 333 347 359 341 65 123 135 137 140 145 148 153 156 156 157 163 165
332 331 331 331 333 334 335 336 335 335 337 341 343 340 336 330 329 325 316 308 297 292 291 292 295 298 304 314 317 318 305 266 270 299 260 279 322 327 288 222 207 203 198 187 189 194 213 237 237 230 222 217 234 242 253 252 240 236 249 246 243 243 250 262 269 271 268 290 34 23 321 314 332 330 347 103 127 138 138 140 144 147 155 158 160 160 164 168
328 328 328 328 328 329 330 329 329 330 331 333 335 337 335 329 326 323 320 314 304 298 290 288 292 293 300 308 318 318 291 276 302 330 227 242 291 310 297 252 216 203 196 186 187 187 211 244 239 230 228 229 233 236 249 258 253 244 242 245 248 252 258 265 270 272 256 195 139 138 263 278 284 316 321 125 137 145 145 148 147 148 158 162 164 161 163 170
327 326 325 325 324 324 323 323 324 324 326 328 328 330 330 329 324 321 320 314 309 303 293 288 288 291 299 302 320 318 282 284 335 210 222 251 265 279 273 263 230 208 198 186 186 196 228 250 240 230 235 254 250 245 246 249 256 251 247 246 243 249 257 265 272 276 271 203 156 171 198 251 274 346 315 167 148 154 154 151 151 153 163 167 165 164 165 170
328 325 325 323 321 321 319 319 318 319 321 323 324 324 323 324 321 319 316 316 312 303 299 290 285 287 291 295 311 299 245 287 318 232 263 276 250 257 255 249 236 212 199 190 194 210 234 248 240 233 241 259 263 262 256 251 258 262 264 258 245 246 252 257 261 267 277 254 171 173 191 244 253 190 299 226 156 157 153 146 152 158 164 171 168 166 169 173
329 327 325 323 321 320 317 316 315 315 316 316 318 317 317 317 317 317 312 315 311 306 305 293 289 281 280 279 252 250 217 191 264 260 297 286 250 252 248 241 231 212 202 200 207 220 239 250 248 244 235 242 258 266 267 266 272 279 287 284 260 251 251 252 256 266 279 265 200 219 255 250 247 193 226 246 176 156 153 148 154 160 163 172 171 169 174 176
330 327 326 324 323 321 318 317 314 313 312 311 312 311 313 313 311 311 308 309 305 307 306 297 295 281 281 266 245 252 237 216 232 264 275 264 259 264 240 235 231 220 212 206 211 225 243 252 254 260 256 248 253 259 274 276 275 277 284 288 282 277 260 250 253 272 278 232 192 209 238 248 245 208 208 238 216 159 155 156 158 163 164 171 171 172 178 177
331 329 328 326 324 323 320 318 315 313 310 308 307 306 307 307 307 306 303 302 298 297 297 296 294 284 283 265 259 277 279 246 230 237 251 243 271 273 228 219 226 228 223 217 230 240 249 257 257 270 281 280 273 279 296 294 279 267 271 269 280 297 277 253 242 260 268 212 200 203 218 242 235 234 213 229 232 169 155 161 163 163 164 170 172 173 178 176
332 331 329 328 326 324 321 319 317 314 311 309 305 302 303 304 303 301 300 298 294 289 290 293 292 283 265 269 281 294 275 250 229 226 244 244 251 251 227 218 223 228 231 239 255 260 266 272 262 266 276 278 286 292 300 308 294 272 282 278 255 268 272 272 248 241 257 213 202 195 196 240 227 233 222 228 233 188 160 165 164 161 165 172 174 174 177 178
333 332 331 330 328 326 323 321 318 315 313 309 304 301 300 300 299 298 297 294 291 286 287 292 292 283 268 281 296 308 236 236 232 228 228 230 230 227 224 222 226 228 232 242 255 264 276 285 273 259 257 266 283 294 297 303 297 277 265 277 250 241 249 271 258 235 246 221 202 196 206 236 221 236 226 226 235 203 169 172 165 162 165 169 175 173 174 179
332 332 332 331 330 328 325 322 319 316 313 309 306 302 300 299 296 294 294 293 292 288 286 297 307 297 281 287 298 281 233 232 230 220 209 219 222 224 222 219 226 228 231 240 251 261 269 276 275 268 255 258 262 269 288 296 290 268 233 245 246 248 242 245 246 234 239 230 202 197 207 221 213 250 238 227 232 203 171 176 166 164 168 168 173 170 170 176
331 331 332 332 331 329 327 324 321 317 313 310 306 301 299 297 292 290 294 293 290 282 274 268 334 298 272 267 277 267 245 232 227 216 218 223 218 223 224 217 218 223 230 235 246 252 252 252 256 265 257 247 231 215 252 262 258 270 240 226 238 241 241 240 239 230 229 227 210 199 202 220 210 241 244 230 224 194 171 175 161 164 172 170 171 169 170 174
328 328 329 331 331 330 328 325 322 320 315 312 308 305 302 296 291 291 293 292 284 275 265 225 169 298 268 255 279 282 254 232 224 215 221 221 216 224 226 220 212 213 226 229 233 232 233 241 232 241 249 229 236 211 212 225 222 244 240 223 233 232 236 244 246 234 220 211 210 203 196 220 232 239 252 243 231 203 175 171 159 164 170 169 174 172 171 178
324 324 326 327 329 329 329 327 324 322 317 314 309 304 302 298 295 291 282 259 231 242 278 221 186 205 265 269 286 288 285 233 204 204 215 213 214 222 228 230 214 204 216 214 217 214 208 229 225 225 238 220 222 217 227 240 228 240 248 237 234 236 239 241 242 239 225 202 202 204 188 206 227 237 259 263 263 254 194 176 158 158 162 165 171 170 174 180
321 321 322 322 325 325 327 328 326 324 320 317 315 311 308 308 307 301 253 244 261 275 280 253 217 229 258 274 280 279 285 226 186 197 207 199 205 218 229 233 213 201 214 195 196 206 197 204 226 220 224 225 227 223 232 248 250 255 264 271 271 267 263 255 250 238 223 195 197 198 176 196 216 227 248 256 265 267 191 173 154 151 159 161 164 170 168 153
319 318 318 318 319 319 321 324 324 325 320 317 319 313 305 303 295 310 310 291 288 284 274 265 244 243 258 269 273 276 284 248 194 203 209 193 195 212 225 221 205 202 217 218 217 206 197 207 228 223 225 229 233 228 225 240 254 263 269 281 286 282 280 280 275 251 219 176 189 184 163 192 206 217 234 236 244 240 161 167 155 151 158 162 164 158 132 112
316 315 315 315 315 315 316 318 321 320 317 320 319 307 304 305 287 304 315 299 292 287 270 266 257 251 258 262 265 269 276 259 204 198 203 191 191 200 205 194 197 224 205 217 239 208 199 230 229 223 228 229 237 239 229 235 247 255 263 273 276 279 292 293 287 267 205 150 179 177 174 199 200 210 226 206 184 183 174 177 167 157 162 170 157 124 108 108
314 314 314 314 314 314 313 315 320 318 316 323 316 304 326 332 315 320 315 290 290 289 271 258 250 246 250 252 254 255 258 256 217 191 189 186 189 197 198 182 197 223 204 202 221 207 209 233 222 220 232 233 242 242 224 229 251 241 236 255 267 272 288 297 303 313 83 109 137 153 172 237 207 211 240 217 186 189 182 177 173 161 154 149 126 108 111 116
315 316 316 316 316 315 314 314 316 312 306 311 317 323 342 342 336 329 315 290 289 286 276 263 246 240 242 242 243 241 243 246 232 200 187 185 191 198 206 208 201 217 221 203 208 218 236 235 214 212 232 234 244 247 215 185 262 261 229 239 265 273 282 300 315 331 3 37 81 94 45 328 275 234 275 253 195 192 175 160 159 123 111 116 116 111 114 113
318 318 320 320 321 321 318 313 306 298 288 293 338 350 348 350 341 329 318 299 272 277 283 273 244 237 236 234 229 225 231 236 232 221 193 187 190 193 205 218 211 215 223 214 211 219 240 242 216 204 224 229 237 246 213 177 236 292 249 237 254 266 278 299 308 326 1 338 1 84 66 306 299 279 272 271 188 186 156 143 147 108 104 114 118 115 114 112
319 318 322 324 325 327 323 317 302 290 280 282 333 356 356 1 345 324 320 314 265 266 274 235 212 229 225 216 210 209 220 230 224 227 210 190 191 195 200 212 214 217 219 218 218 212 234 245 228 203 211 219 226 234 201 157 191 270 249 252 263 265 267 278 295 316 16 248 251 103 132 253 302 294 264 251 168 166 146 135 127 108 111 119 122 122 123 123
318 317 322 324 327 330 325 324 309 295 290 288 311 6 360 340 329 321 335 356 268 248 217 178 184 204 199 195 195 194 209 215 207 219 221 197 190 199 209 213 212 220 226 223 222 211 212 233 243 220 208 208 209 217 193 161 184 239 227 251 266 269 261 242 253 276 248 203 207 125 137 168 287 271 259 242 165 156 157 130 94 104 116 123 127 131 132 132
317 316 318 321 327 328 320 322 319 311 314 301 295 335 338 322 317 329 48 81 292 268 163 161 175 179 187 183 183 186 208 205 180 209 219 203 188 192 206 228 230 227 228 223 226 223 200 214 233 229 220 215 181 188 196 185 203 238 220 236 257 266 266 247 216 247 252 74 327 247 148 142 270 266 273 256 204 183 169 130 106 115 124 127 131 132 132 136
315 314 314 314 321 323 310 312 323 336 360 345 291 292 316 314 311 353 90 187 295 296 162 164 169 188 204 178 176 189 213 224 210 196 199 193 191 194 207 229 242 260 258 250 238 238 213 208 209 201 209 228 204 201 204 200 210 228 225 240 260 268 271 260 218 220 144 107 263 254 166 148 273 279 279 246 212 194 170 127 119 126 127 131 134 132 134 140
312 313 311 308 314 316 299 302 322 0 18 15 327 290 306 315 357 67 195 224 284 277 150 147 164 181 196 184 175 189 209 240 245 195 175 173 188 203 230 235 239 263 271 263 250 253 257 227 208 195 196 193 205 224 220 223 219 215 223 237 258 269 273 262 208 159 106 199 240 242 216 164 263 284 266 235 217 172 142 115 118 122 124 131 131 130 138 143
313 313 306 304 309 306 295 300 318 10 6 5 329 313 315 315 61 152 217 261 279 257 184 162 181 174 185 194 186 191 204 242 250 203 169 162 182 202 227 243 242 252 270 276 263 252 251 241 215 236 240 185 192 229 236 232 219 208 216 209 253 289 309 333 327 135 156 249 230 211 216 184 207 281 299 321 8 118 126 122 128 120 118 128 127 131 142 144
316 310 301 301 303 298 295 298 268 215 254 323 318 322 348 168 212 215 253 312 280 236 151 201 204 184 191 197 197 196 193 228 243 211 175 157 167 193 192 210 217 205 262 280 278 250 245 242 196 223 269 232 195 226 253 247 215 190 200 181 189 307 330 334 281 194 204 243 220 188 204 211 193 258 332 12 38 100 123 123 131 126 121 126 122 128 142 143
321 311 302 296 296 297 296 289 244 217 229 280 313 321 24 138 210 216 235 271 267 302 353 329 257 206 195 195 209 205 183 211 238 208 175 167 169 189 197 210 212 180 217 248 255 258 264 273 233 207 211 204 206 212 227 240 212 173 174 160 162 158 158 269 262 225 218 249 241 205 203 232 222 15 27 52 54 71 100 117 128 129 131 133 123 121 134 140
329 317 306 299 304 306 295 273 241 218 226 280 314 333 161 211 243 223 226 250 274 301 319 313 301 275 218 192 200 235 197 206 226 196 161 173 184 190 195 211 223 212 191 224 235 210 227 252 239 232 198 177 198 221 217 222 213 213 201 159 164 159 159 211 227 204 218 266 273 223 197 205 183 198 122 80 67 60 73 105 124 128 134 134 124 124 131 135
336 319 305 308 330 335 323 249 219 190 164 264 255 159 191 220 250 244 247 253 263 288 298 294 296 289 255 190 157 245 256 221 224 214 176 177 193 199 192 205 221 223 192 195 230 222 230 235 210 215 212 177 183 214 224 259 311 269 244 174 208 193 151 159 215 197 172 37 323 270 188 189 169 195 112 84 70 60 64 86 108 123 134 127 119 128 135 137
340 320 303 306 342 349 18 85 144 134 131 233 225 216 222 226 249 251 276 276 268 293 304 295 290 271 259 237 175 214 265 264 244 256 212 177 190 211 210 197 205 213 204 182 214 223 222 261 240 211 210 196 185 193 198 204 228 299 319 212 229 202 144 136 245 263 92 78 286 100 100 118 95 20 51 77 70 58 59 68 75 88 108 112 114 126 138 144
342 326 308 304 283 277 346 69 86 104 165 229 215 241 244 245 255 256 277 289 295 310 314 304 301 285 253 226 203 196 175 217 229 243 270 69 243 252 248 236 215 215 217 211 230 250 206 259 289 230 206 216 198 189 202 198 170 136 204 218 254 357 87 115 139 325 63 109 256 150 142 158 115 147 57 80 77 70 69 70 66 70 82 96 109 124 139 150
351 344 331 325 253 241 32 73 112 167 216 243 253 260 267 260 262 270 281 288 298 308 306 295 294 298 292 255 261 181 150 207 234 213 279 23 276 258 22 328 311 298 257 238 236 248 196 240 295 326 97 273 218 183 213 228 187 172 203 203 150 59 6 38 114 189 145 155 284 356 123 121 105 193 167 106 104 97 87 82 77 76 85 98 115 129 140 150
2 358 8 71 120 146 141 160 194 212 226 239 244 250 263 262 264 270 274 282 295 298 297 293 284 293 315 312 307 250 171 191 196 163 330 349 273 309 25 325 291 330 344 345 253 258 173 151 288 310 321 359 338 197 208 245 226 225 251 276 101 131 161 168 148 163 144 163 278 343 20 328 268 247 192 144 132 123 114 99 89 92 102 113 124 134 141 148
359 340 322 136 165 206 214 216 210 215 228 234 242 254 267 270 266 266 267 271 274 268 274 290 293 302 318 315 316 317 234 178 147 139 177 222 261 327 355 331 304 325 352 31 38 333 340 129 199 292 333 69 8 266 196 12 317 254 253 228 132 120 124 117 188 173 137 140 198 119 358 274 260 251 178 145 131 125 127 117 103 108 115 123 132 137 143 149
343 289 239 208 238 259 241 215 199 215 239 243 247 254 262 268 271 273 275 276 270 261 259 268 284 299 317 327 326 329 335 352 141 145 167 174 159 342 285 302 345 348 5 31 27 17 357 168 181 256 341 88 230 323 42 37 24 24 325 281 182 129 112 97 314 273 129 115 178 157 161 268 287 334 26 110 119 124 127 123 115 114 121 129 135 138 144 148
331 256 241 212 251 290 193 185 218 233 232 265 278 280 279 276 275 280 284 283 278 266 262 261 263 276 306 327 313 311 317 323 121 84 34 97 138 221 242 282 343 11 30 24 327 19 40 347 162 207 261 213 259 355 40 41 31 44 40 6 1 31 101 138 196 269 349 35 336 100 117 257 321 23 22 15 28 39 49 74 86 92 107 122 132 135 137 137
315 293 148 179 325 13 120 263 321 304 280 309 308 297 294 292 290 296 299 295 287 273 279 298 306 312 340 326 303 298 307 327 114 141 150 137 188 222 219 25 27 29 30 3 319 2 17 5 3 334 307 321 338 4 42 48 37 38 30 13 15 15 3 191 175 164 157 182 70 60 69 276 342 42 48 24 21 31 26 27 55 69 79 99 117 125 128 130
314 299 182 181 353 32 73 214 325 315 299 315 319 307 301 298 287 290 299 299 297 294 302 334 342 336 338 332 312 296 281 302 115 136 146 152 187 218 207 137 56 63 71 183 223 1 2 343 39 29 359 349 348 352 15 29 35 36 9 14 23 21 10 359 67 78 103 185 133 119 193 270 347 58 76 58 39 47 35 25 49 61 67 79 89 96 105 117
322 312 145 150 77 51 56 179 267 297 303 318 318 307 300 291 277 282 289 290 301 322 19 348 336 327 322 333 317 297 273 278 290 105 106 128 163 230 197 161 132 78 12 307 139 123 144 258 90 88 105 146 270 258 259 334 359 26 18 24 27 20 15 20 81 81 75 220 113 125 156 137 89 77 86 88 70 57 47 51 55 54 60 70 77 84 88 83
337 353 68 74 47 40 22 347 343 328 308 337 323 301 302 301 294 302 303 289 303 339 6 351 332 326 315 317 313 310 325 318 305 188 128 115 122 246 173 154 168 171 154 326 348 99 128 255 151 150 163 174 191 198 186 170 94 63 39 32 31 25 25 42 76 83 109 106 71 116 140 124 112 106 109 109 88 68 56 66 63 54 55 60 66 80 81 66
349 356 2 28 23 17 359 350 3 343 269 161 317 298 320 328 324 326 325 318 331 354 353 325 329 325 308 311 310 313 336 343 8 36 4 6 31 349 20 45 161 157 144 169 353 62 85 338 211 180 188 205 179 164 166 155 97 78 62 45 42 40 38 49 59 308 274 131 80 71 123 119 123 135 125 100 82 82 73 72 73 70 71 75 78 79 75 68
50 34 38 54 160 349 344 347 3 348 312 65 278 315 347 339 328 347 339 326 334 354 355 346 349 342 341 0 6 344 349 10 35 27 4 0 3 358 9 15 36 41 22 160 105 70 112 230 235 171 192 250 179 132 128 113 78 72 78 68 60 56 47 48 33 305 284 146 134 123 105 96 83 77 72 60 68 79 82 84 84 80 80 90 94 86 79 77
44 57 32 0 357 103 18 353 1 350 342 20 9 347 3 347 341 4 338 306 325 354 6 15 355 354 6 25 35 24 15 22 16 12 29 351 340 5 19 1 29 14 360 25 66 12 34 195 310 245 182 190 84 84 84 86 86 83 78 73 75 71 59 48 18 349 31 97 120 114 94 72 44 39 46 65 80 80 80 84 86 84 85 91 93 87 82 81
24 32 4 337 342 86 51 14 13 2 351 15 32 316 332 18 19 1 311 297 11 2 12 24 356 0 16 26 32 28 14 6 345 3 97 215 312 43 72 314 297 7 4 21 14 357 12 281 295 318 78 99 93 90 73 66 75 85 75 66 77 77 57 41 22 5 40 79 96 98 90 71 41 52 54 64 77 79 74 73 76 81 87 92 91 87 85 83
16 27 22 347 321 74 58 28 16 19 359 348 352 5 0 18 33 16 323 7 26 24 15 15 14 7 15 25 25 5 346 337 326 320 311 297 273 239 207 153 142 34 354 345 28 9 358 279 282 16 47 32 96 110 92 73 58 59 57 35 43 73 72 58 48 25 64 89 83 82 87 83 70 74 63 55 67 74 69 66 72 76 82 87 87 86 86 84
11 14 18 357 312 19 51 55 22 30 357 308 343 15 7 1 18 28 355 357 14 20 15 13 17 10 16 30 8 333 324 319 312 310 307 299 288 280 232 165 160 151 142 200 126 81 320 64 16 40 59 351 344 51 92 85 56 38 5 324 345 84 100 84 71 73 92 99 82 81 97 107 109 91 76 61 64 68 64 65 74 80 83 86 88 88 87 85